Location: �chenoz-la-M�line
(47.6009°N, 6.1354°E)
Time: 12:48:43
(UTC+00:00)

CZ-4B R/B - Pass Details

Date: 27 January 2021
Orbit: 496 x 646 km, 97.8° (Epoch: 02 March)

Event Time Altitude Azimuth Distance (km) Brightness Sun altitude
Rises 05:05:26 0° 8° (N) 2,974 7.6 -20.6°
Reaches altitude 10° 05:07:43 10° 3° (N) 2,056 6.7 -20.2°
Maximum altitude 05:12:02 47° 290° (WNW) 848 4.3 -19.5°
Enters shadow 05:12:44 43° 260° (W) 899 4.4 -19.4°
